Flag Weather past 2 weeks in West Covina, California, U.S.A.

Now
82 °F

Sunny.


Feels Like: 80 °F
Forecast: 49 / 80 °F
Wind: No wind

Location: Fullerton Municipal Airport

Current Time: Nov 25, 2014 at 3:48:44 PM

Latest Report: Nov 25, 2014 at 2:53 PM


Visibility: 10 mi

Pressure: 30.24 "Hg

Humidity: 5%

Dew point: 7 °F

Location of West CovinaLocation

Historic Weather in West Covina — Graph

°F

West Covina temperature yesterday

Maximum temperature yesterday: 82 °F (at 12:53 PM)
Minimum temperature yesterday: 48 °F (at 5:53 AM)
Average temperature yesterday: 65 °F

Past Weeks' High & Low Weather Summary

 TemperatureHumidityPressure
High82 °F (Nov 24, 12:53 PM)93% (Nov 23, 4:53 AM)30.37 "Hg (Nov 23, 4:53 AM)
Low48 °F (Nov 24, 5:53 AM)3% (Nov 16, 2:53 PM)29.83 "Hg (Nov 10, 4:53 PM)
Average64 °F53%30.05 "Hg
* Reported Nov 10 1:53 PM — Nov 25 1:53 PM, West Covina, Weather by CustomWeather, © 2014

Note: Actual official high and low records may vary slightly from our data, if they occured in-between our weather recording intervals... More about our weather records

Advertising

West Covina weather history for previous 24 hours

 ConditionsComfort  
Time TempWeatherWind HumidityBarometerVisibility
1:53 PM
Nov 25
82 °FSunny.5 mph5%30.24 "Hg10 mi
12:53 PM82 °FSunny.7 mph6%30.27 "Hg10 mi
11:53 AM81 °FSunny.5 mph7%30.30 "Hg10 mi
10:53 AM79 °FSunny.No wind8%30.33 "Hg10 mi
9:53 AM74 °FSunny.No wind12%30.36 "Hg10 mi
8:53 AM68 °FSunny.No wind17%30.37 "Hg10 mi
7:53 AM58 °FSunny.No wind30%30.37 "Hg10 mi
6:53 AM49 °FSunny.No wind44%30.35 "Hg10 mi
5:53 AM49 °FClear.No wind41%30.34 "Hg10 mi
4:53 AM49 °FClear.No wind43%30.32 "Hg10 mi
3:53 AM51 °FClear.No wind42%30.32 "Hg10 mi
2:53 AM54 °FClear.No wind30%30.31 "Hg10 mi
1:53 AM58 °FClear.3 mph17%30.31 "Hg10 mi
12:53 AM65 °FClear.7 mph12%30.30 "Hg10 mi
11:53 PM
Nov 24
55 °FClear.No wind30%30.30 "Hg10 mi
10:53 PM58 °FClear.No wind27%30.29 "Hg10 mi
9:53 PM63 °FClear.No wind17%30.28 "Hg10 mi
8:53 PM63 °FClear.No wind18%30.27 "Hg10 mi
7:53 PM65 °FClear.3 mph16%30.25 "Hg10 mi
6:53 PM71 °FClear.No wind10%30.22 "Hg10 mi
5:53 PM75 °FClear.5 mph8%30.20 "Hg10 mi
4:53 PM75 °FClear.3 mph17%30.18 "Hg10 mi
3:53 PM82 °FSunny.No wind6%30.16 "Hg10 mi
Weather by CustomWeather, © 2014

See weather overviewHow to use our weather pages